| time (UTC) | temp F | wind direction | speed knots | gust knots | rain 1hr in | rain 24hr in | rain mn in | humidity % | barometer mb |
| 20260506002639 | 48 | 35 | 0.0 | 0.9 | 0.00 | 0.00 | 0.00 | 89 | 1008.4 |
| 20260506002142 | 48 | 35 | 0.0 | 0.9 | 0.00 | 0.00 | 0.00 | 89 | 1008.5 |
| 20260506001639 | 48 | 35 | 0.9 | 0.9 | 0.00 | 0.00 | 0.00 | 89 | 1008.5 |
| 20260506001141 | 48 | 35 | 0.0 | 1.7 | 0.00 | 0.00 | 0.00 | 89 | 1008.5 |
| 20260506000638 | 48 | 35 | 0.0 | 1.7 | 0.00 | 0.00 | 0.00 | 89 | 1008.5 |
| 20260506000139 | 49 | 55 | 0.9 | 1.7 | 0.00 | 0.00 | 0.00 | 89 | 1008.5 |
| 20260505235639 | 49 | 69 | 0.9 | 1.7 | 0.00 | 0.00 | 0.00 | 88 | 1008.6 |
| 20260505235139 | 49 | 56 | 0.9 | 1.7 | 0.00 | 0.00 | 0.00 | 88 | 1008.6 |
| 20260505234639 | 49 | 56 | 0.9 | 3.5 | 0.00 | 0.00 | 0.00 | 88 | 1008.6 |
| 20260505234140 | 49 | 24 | 0.9 | 3.5 | 0.00 | 0.00 | 0.00 | 88 | 1008.6 |
| 20260505233639 | 50 | 18 | 0.9 | 2.6 | 0.00 | 0.00 | 0.00 | 88 | 1008.7 |
| 20260505233140 | 50 | 45 | 1.7 | 3.5 | 0.00 | 0.00 | 0.00 | 88 | 1008.6 |
| 20260505232639 | 49 | 37 | 1.7 | 3.5 | 0.00 | 0.00 | 0.00 | 88 | 1008.7 |
| 20260505232139 | 49 | 21 | 1.7 | 2.6 | 0.00 | 0.00 | 0.00 | 88 | 1008.7 |
| 20260505231639 | 50 | 21 | 0.9 | 4.3 | 0.00 | 0.00 | 0.00 | 88 | 1008.9 |
| 20260505231139 | 50 | 73 | 1.7 | 5.2 | 0.00 | 0.00 | 0.00 | 88 | 1008.8 |
| 20260505230639 | 50 | 11 | 0.9 | 5.2 | 0.00 | 0.00 | 0.00 | 87 | 1008.9 |
| 20260505230139 | 49 | 6 | 0.9 | 5.2 | 0.00 | 0.00 | 0.00 | 87 | 1008.9 |
| 20260505225639 | 49 | 7 | 1.7 | 5.2 | 0.00 | 0.00 | 0.00 | 87 | 1008.8 |
| 20260505225138 | 49 | 1 | 0.9 | 2.6 | 0.00 | 0.00 | 0.00 | 87 | 1008.9 |
| 20260505224638 | 50 | 28 | 0.9 | 2.6 | 0.00 | 0.00 | 0.00 | 86 | 1009.0 |
| 20260505224139 | 49 | 16 | 1.7 | 3.5 | 0.00 | 0.00 | 0.00 | 86 | 1009.1 |
| 20260505223638 | 49 | 25 | 1.7 | 3.5 | 0.00 | 0.00 | 0.00 | 86 | 1009.2 |
| 20260505223139 | 49 | 27 | 1.7 | 5.2 | 0.00 | 0.00 | 0.00 | 86 | 1009.2 |
| 20260505222638 | 49 | 41 | 1.7 | 5.2 | 0.00 | 0.00 | 0.00 | 86 | 1009.3 |
| 20260505222139 | 49 | 27 | 1.7 | 2.6 | 0.00 | 0.00 | 0.00 | 85 | 1009.3 |
| 20260505221639 | 49 | 7 | 1.7 | 2.6 | 0.00 | 0.00 | 0.00 | 85 | 1009.3 |
| 20260505221136 | 49 | 14 | 1.7 | 2.6 | 0.00 | 0.00 | 0.00 | 85 | 1009.3 |
| 20260505220640 | 49 | 37 | 0.9 | 2.6 | 0.00 | 0.00 | 0.00 | 85 | 1009.3 |
| 20260505220137 | 49 | 20 | 1.7 | 4.3 | 0.00 | 0.00 | 0.00 | 85 | 1009.3 |
| 20260505215635 | 49 | 25 | 0.9 | 5.2 | 0.00 | 0.00 | 0.00 | 85 | 1009.4 |
| 20260505215134 | 49 | 35 | 1.7 | 5.2 | 0.00 | 0.00 | 0.00 | 84 | 1009.2 |
| 20260505214633 | 49 | 7 | 1.7 | 6.1 | 0.00 | 0.00 | 0.00 | 84 | 1009.3 |
| 20260505214134 | 49 | 17 | 1.7 | 6.1 | 0.00 | 0.00 | 0.00 | 84 | 1009.3 |
| 20260505213634 | 49 | 0 | 1.7 | 3.5 | 0.00 | 0.00 | 0.00 | 84 | 1009.2 |
| 20260505213134 | 49 | 20 | 1.7 | 5.2 | 0.00 | 0.00 | 0.00 | 85 | 1009.3 |
| 20260505212635 | 49 | 34 | 1.7 | 5.2 | 0.00 | 0.00 | 0.00 | 85 | 1009.3 |
| 20260505212135 | 49 | 41 | 1.7 | 3.5 | 0.00 | 0.00 | 0.00 | 85 | 1009.4 |
| 20260505211635 | 49 | 7 | 1.7 | 4.3 | 0.00 | 0.00 | 0.00 | 85 | 1009.3 |
| 20260505211134 | 49 | 3 | 1.7 | 4.3 | 0.00 | 0.00 | 0.00 | 85 | 1009.4 |
| 20260505210635 | 49 | 8 | 1.7 | 3.5 | 0.00 | 0.00 | 0.00 | 85 | 1009.5 |
| 20260505210134 | 49 | 21 | 1.7 | 3.5 | 0.00 | 0.00 | 0.00 | 86 | 1009.4 |
| 20260505205633 | 49 | 27 | 1.7 | 5.2 | 0.00 | 0.00 | 0.00 | 86 | 1009.4 |
| 20260505205133 | 49 | 30 | 2.6 | 5.2 | 0.00 | 0.00 | 0.00 | 86 | 1009.4 |
| 20260505204633 | 49 | 6 | 1.7 | 7.8 | 0.00 | 0.00 | 0.00 | 86 | 1009.5 |
| 20260505204133 | 49 | 6 | 1.7 | 7.8 | 0.00 | 0.00 | 0.00 | 86 | 1009.5 |
| 20260505203633 | 49 | 0 | 1.7 | 3.5 | 0.00 | 0.00 | 0.00 | 85 | 1009.6 |
| 20260505203134 | 49 | 8 | 1.7 | 4.3 | 0.00 | 0.00 | 0.00 | 85 | 1009.6 |
| 20260505202633 | 49 | 31 | 1.7 | 5.2 | 0.00 | 0.00 | 0.00 | 85 | 1009.6 |
| 20260505202131 | 49 | 0 | 1.7 | 5.2 | 0.00 | 0.00 | 0.00 | 85 | 1009.6 |
| 20260505201633 | 49 | 18 | 1.7 | 4.3 | 0.00 | 0.00 | 0.00 | 85 | 1009.6 |
| 20260505201131 | 49 | 20 | 1.7 | 8.7 | 0.00 | 0.00 | 0.00 | 84 | 1009.6 |
| 20260505200633 | 49 | 20 | 2.6 | 8.7 | 0.00 | 0.00 | 0.00 | 84 | 1009.6 |
| 20260505200130 | 49 | 4 | 1.7 | 3.5 | 0.00 | 0.00 | 0.00 | 84 | 1009.5 |
| 20260505195630 | 49 | 8 | 1.7 | 4.3 | 0.00 | 0.00 | 0.00 | 84 | 1009.5 |
| 20260505195134 | 49 | 17 | 1.7 | 5.2 | 0.00 | 0.00 | 0.00 | 84 | 1009.5 |
| 20260505194631 | 49 | 8 | 1.7 | 5.2 | 0.00 | 0.00 | 0.00 | 84 | 1009.4 |
| 20260505194129 | 49 | 20 | 2.6 | 6.1 | 0.00 | 0.00 | 0.00 | 84 | 1009.5 |
| 20260505193629 | 49 | 21 | 1.7 | 6.1 | 0.00 | 0.00 | 0.00 | 83 | 1009.6 |
| 20260505193129 | 49 | 14 | 1.7 | 5.2 | 0.00 | 0.00 | 0.00 | 84 | 1009.7 |
| 20260505192630 | 49 | 0 | 1.7 | 5.2 | 0.00 | 0.00 | 0.00 | 84 | 1009.6 |
| 20260505192128 | 49 | 14 | 1.7 | 3.5 | 0.00 | 0.00 | 0.00 | 84 | 1009.6 |
| 20260505191631 | 49 | 16 | 1.7 | 5.2 | 0.00 | 0.00 | 0.00 | 84 | 1009.5 |
| 20260505191129 | 49 | 0 | 1.7 | 7.8 | 0.00 | 0.00 | 0.00 | 84 | 1009.5 |
| 20260505190630 | 49 | 17 | 1.7 | 7.8 | 0.00 | 0.00 | 0.00 | 84 | 1009.5 |
| 20260505190129 | 49 | 20 | 2.6 | 7.8 | 0.00 | 0.00 | 0.00 | 84 | 1009.4 |
| 20260505185628 | 50 | 24 | 1.7 | 7.8 | 0.00 | 0.00 | 0.00 | 84 | 1009.5 |
| 20260505185128 | 50 | 17 | 1.7 | 5.2 | 0.00 | 0.00 | 0.00 | 85 | 1009.3 |
| 20260505184627 | 50 | 3 | 2.6 | 6.1 | 0.00 | 0.00 | 0.00 | 85 | 1009.3 |
| 20260505184127 | 50 | 21 | 1.7 | 7.8 | 0.00 | 0.00 | 0.00 | 85 | 1009.2 |
| 20260505183623 | 50 | 7 | 3.5 | 7.8 | 0.00 | 0.00 | 0.00 | 85 | 1009.3 |
| 20260505183123 | 50 | 13 | 1.7 | 5.2 | 0.00 | 0.00 | 0.00 | 85 | 1009.3 |
| 20260505182625 | 50 | 7 | 1.7 | 4.3 | 0.00 | 0.00 | 0.00 | 85 | 1009.3 |
| 20260505182121 | 50 | 3 | 1.7 | 7.8 | 0.00 | 0.00 | 0.00 | 85 | 1009.3 |
| 20260505181622 | 50 | 37 | 1.7 | 7.8 | 0.00 | 0.00 | 0.00 | 84 | 1009.4 |
| 20260505181122 | 50 | 48 | 1.7 | 5.2 | 0.00 | 0.00 | 0.00 | 84 | 1009.3 |
| 20260505180620 | 50 | 7 | 2.6 | 5.2 | 0.00 | 0.00 | 0.00 | 84 | 1009.3 |
| 20260505180119 | 50 | 0 | 1.7 | 4.3 | 0.00 | 0.00 | 0.00 | 84 | 1009.4 |
| 20260505175621 | 50 | 14 | 2.6 | 4.3 | 0.00 | 0.00 | 0.00 | 83 | 1009.3 |
| 20260505175117 | 50 | 21 | 1.7 | 5.2 | 0.00 | 0.00 | 0.00 | 84 | 1009.4 |
| 20260505174617 | 50 | 11 | 2.6 | 5.2 | 0.00 | 0.00 | 0.00 | 83 | 1009.4 |
| 20260505173617 | 51 | 6 | 1.7 | 6.1 | 0.00 | 0.00 | 0.00 | 84 | 1009.4 |
| 20260505173116 | 50 | 28 | 2.6 | 6.1 | 0.00 | 0.00 | 0.00 | 83 | 1009.4 |
| 20260505172616 | 51 | 11 | 2.6 | 5.2 | 0.00 | 0.00 | 0.00 | 83 | 1009.4 |
| 20260505172115 | 51 | 0 | 2.6 | 7.8 | 0.00 | 0.00 | 0.00 | 83 | 1009.5 |
| 20260505171614 | 51 | 4 | 3.5 | 7.8 | 0.00 | 0.00 | 0.00 | 83 | 1009.5 |
| 20260505171114 | 51 | 18 | 1.7 | 7.8 | 0.00 | 0.00 | 0.00 | 83 | 1009.6 |
| 20260505170611 | 51 | 27 | 2.6 | 7.8 | 0.00 | 0.00 | 0.00 | 83 | 1009.6 |
| 20260505170112 | 51 | 82 | 1.7 | 5.2 | 0.00 | 0.00 | 0.00 | 83 | 1009.6 |
| 20260505165610 | 51 | 351 | 2.6 | 5.2 | 0.00 | 0.00 | 0.00 | 83 | 1009.6 |
| 20260505165109 | 51 | 353 | 2.6 | 5.2 | 0.00 | 0.00 | 0.00 | 83 | 1009.6 |
| 20260505164609 | 51 | 14 | 2.6 | 9.6 | 0.00 | 0.00 | 0.00 | 83 | 1009.6 |
| 20260505164107 | 51 | 0 | 3.5 | 9.6 | 0.00 | 0.00 | 0.00 | 83 | 1009.6 |
| 20260505163607 | 51 | 8 | 3.5 | 8.7 | 0.00 | 0.00 | 0.00 | 83 | 1009.6 |
| 20260505163107 | 51 | 0 | 1.7 | 8.7 | 0.00 | 0.00 | 0.00 | 82 | 1009.6 |
| 20260505162608 | 51 | 24 | 3.5 | 8.7 | 0.00 | 0.00 | 0.00 | 82 | 1009.7 |
| 20260505162107 | 51 | 0 | 1.7 | 6.1 | 0.00 | 0.00 | 0.00 | 82 | 1009.7 |
| 20260505161605 | 52 | 14 | 2.6 | 6.1 | 0.00 | 0.00 | 0.00 | 81 | 1009.7 |
| 20260505161106 | 52 | 13 | 1.7 | 5.2 | 0.00 | 0.00 | 0.00 | 82 | 1009.7 |
| 20260505160605 | 52 | 11 | 2.6 | 5.2 | 0.00 | 0.00 | 0.00 | 82 | 1009.7 |
| 20260505160105 | 52 | 13 | 1.7 | 4.3 | 0.00 | 0.00 | 0.00 | 82 | 1009.8 |
| 20260505153102 | 53 | 21 | 1.7 | 8.7 | 0.00 | 0.00 | 0.00 | 82 | 1009.8 |
| 20260505152601 | 53 | 0 | 3.5 | 8.7 | 0.00 | 0.00 | 0.00 | 81 | 1009.9 |
| 20260505152057 | 53 | 17 | 1.7 | 3.5 | 0.00 | 0.00 | 0.00 | 80 | 1009.9 |
| 20260505151553 | 53 | 18 | 2.6 | 3.5 | 0.00 | 0.00 | 0.00 | 80 | 1009.9 |
| 20260505151052 | 53 | 313 | 1.7 | 3.5 | 0.00 | 0.00 | 0.00 | 80 | 1010.0 |
| 20260505150603 | 53 | 13 | 1.7 | 4.3 | 0.00 | 0.00 | 0.00 | 81 | 1009.9 |
| 20260505140551 | 54 | 0 | 2.6 | 3.5 | 0.00 | 0.00 | 0.00 | 79 | 1010.1 |
| 20260505125038 | 54 | 25 | 2.6 | 7.8 | 0.00 | 0.00 | 0.00 | 74 | 1010.5 |
| 20260505124539 | 54 | 51 | 2.6 | 6.1 | 0.00 | 0.00 | 0.00 | 76 | 1010.6 |
| 20260505124039 | 54 | 0 | 1.7 | 5.2 | 0.00 | 0.00 | 0.00 | 73 | 1010.7 |
| 20260505123538 | 55 | 31 | 2.6 | 5.2 | 0.00 | 0.00 | 0.00 | 74 | 1010.7 |
| 20260505123039 | 55 | 31 | 1.7 | 4.3 | 0.00 | 0.00 | 0.00 | 75 | 1010.7 |
| 20260505122538 | 54 | 18 | 1.7 | 4.3 | 0.00 | 0.00 | 0.00 | 73 | 1010.7 |
| 20260505122038 | 54 | 18 | 1.7 | 5.2 | 0.00 | 0.00 | 0.00 | 75 | 1010.6 |
| 20260505121537 | 54 | 44 | 1.7 | 5.2 | 0.00 | 0.00 | 0.00 | 74 | 1010.6 |
| 20260505121038 | 54 | 21 | 1.7 | 3.5 | 0.00 | 0.00 | 0.00 | 74 | 1010.6 |
| 20260505120538 | 54 | 25 | 1.7 | 5.2 | 0.00 | 0.00 | 0.00 | 76 | 1010.6 |
| 20260505120039 | 54 | 69 | 1.7 | 5.2 | 0.00 | 0.00 | 0.00 | 76 | 1010.5 |
| 20260505115538 | 53 | 51 | 1.7 | 3.5 | 0.00 | 0.00 | 0.00 | 75 | 1010.7 |
| 20260505115038 | 53 | 0 | 1.7 | 4.3 | 0.00 | 0.00 | 0.00 | 75 | 1010.7 |
| 20260505114538 | 53 | 8 | 1.7 | 4.3 | 0.00 | 0.00 | 0.00 | 75 | 1010.7 |
| 20260505114038 | 53 | 316 | 1.7 | 7.8 | 0.00 | 0.00 | 0.00 | 74 | 1010.6 |
| 20260505113538 | 53 | 18 | 1.7 | 7.8 | 0.00 | 0.00 | 0.00 | 75 | 1010.6 |
| 20260505113038 | 53 | 66 | 3.5 | 7.8 | 0.00 | 0.00 | 0.00 | 75 | 1010.6 |
| 20260505112535 | 53 | 51 | 2.6 | 7.8 | 0.00 | 0.00 | 0.00 | 75 | 1010.7 |
| 20260505112035 | 53 | 44 | 1.7 | 7.8 | 0.00 | 0.00 | 0.00 | 76 | 1010.7 |
| 20260505111535 | 53 | 52 | 1.7 | 4.3 | 0.00 | 0.00 | 0.00 | 77 | 1010.7 |
| 20260505111035 | 53 | 17 | 1.7 | 3.5 | 0.00 | 0.00 | 0.00 | 77 | 1010.6 |
| 20260505110535 | 53 | 11 | 2.6 | 6.1 | 0.00 | 0.00 | 0.00 | 77 | 1010.7 |
| 20260505102030 | 52 | 30 | 1.7 | 4.3 | 0.00 | 0.00 | 0.00 | 80 | 1010.8 |
| 20260505101530 | 52 | 17 | 1.7 | 3.5 | 0.00 | 0.00 | 0.00 | 80 | 1010.9 |
| 20260505101029 | 52 | 35 | 1.7 | 4.3 | 0.00 | 0.00 | 0.00 | 81 | 1010.9 |
| 20260505100530 | 52 | 17 | 1.7 | 4.3 | 0.00 | 0.00 | 0.00 | 82 | 1010.9 |
| 20260505100030 | 51 | 11 | 1.7 | 2.6 | 0.00 | 0.00 | 0.00 | 83 | 1011.0 |
| 20260505095529 | 51 | 30 | 1.7 | 4.3 | 0.00 | 0.00 | 0.00 | 82 | 1011.0 |
| 20260505095029 | 51 | 0 | 0.9 | 5.2 | 0.00 | 0.00 | 0.00 | 83 | 1011.1 |
| 20260505094527 | 51 | 48 | 2.6 | 5.2 | 0.00 | 0.00 | 0.00 | 83 | 1011.2 |
| 20260505094027 | 51 | 56 | 1.7 | 5.2 | 0.00 | 0.00 | 0.00 | 83 | 1011.2 |
| 20260505093527 | 50 | 48 | 1.7 | 4.3 | 0.00 | 0.00 | 0.00 | 84 | 1011.3 |
| 20260505093026 | 50 | 23 | 1.7 | 4.3 | 0.00 | 0.00 | 0.00 | 84 | 1011.4 |
| 20260505092525 | 50 | 61 | 2.6 | 5.2 | 0.00 | 0.00 | 0.00 | 84 | 1011.4 |
| 20260505092026 | 50 | 38 | 1.7 | 5.2 | 0.00 | 0.00 | 0.00 | 84 | 1011.5 |
| 20260505091524 | 50 | 38 | 1.7 | 4.3 | 0.00 | 0.00 | 0.00 | 84 | 1011.4 |
| 20260505091023 | 50 | 37 | 1.7 | 3.5 | 0.00 | 0.00 | 0.00 | 84 | 1011.5 |
| 20260505090522 | 50 | 21 | 1.7 | 7.8 | 0.00 | 0.00 | 0.00 | 84 | 1011.4 |
| 20260505090021 | 50 | 42 | 1.7 | 7.8 | 0.00 | 0.00 | 0.00 | 84 | 1011.3 |
| 20260505085522 | 50 | 54 | 1.7 | 6.1 | 0.00 | 0.00 | 0.00 | 84 | 1011.4 |
| 20260505085022 | 50 | 38 | 1.7 | 6.1 | 0.00 | 0.00 | 0.00 | 84 | 1011.3 |
| 20260505084521 | 50 | 52 | 2.6 | 6.1 | 0.00 | 0.00 | 0.00 | 84 | 1011.3 |
| 20260505084019 | 50 | 35 | 2.6 | 4.3 | 0.00 | 0.00 | 0.00 | 84 | 1011.4 |
| 20260505083519 | 50 | 24 | 1.7 | 4.3 | 0.00 | 0.00 | 0.00 | 83 | 1011.4 |
| 20260505083017 | 50 | 27 | 1.7 | 4.3 | 0.00 | 0.00 | 0.00 | 83 | 1011.3 |
| 20260505082518 | 50 | 27 | 1.7 | 4.3 | 0.00 | 0.00 | 0.00 | 83 | 1011.3 |
| 20260505082016 | 50 | 0 | 1.7 | 6.1 | 0.00 | 0.00 | 0.00 | 84 | 1011.3 |
| 20260505081516 | 50 | 0 | 1.7 | 6.1 | 0.00 | 0.00 | 0.00 | 83 | 1011.3 |
| 20260505081014 | 50 | 20 | 1.7 | 5.2 | 0.00 | 0.00 | 0.00 | 83 | 1011.2 |
| 20260505080514 | 50 | 39 | 1.7 | 5.2 | 0.00 | 0.00 | 0.00 | 83 | 1011.3 |
| 20260505080013 | 50 | 0 | 1.7 | 3.5 | 0.00 | 0.00 | 0.00 | 83 | 1011.3 |
| 20260505075515 | 50 | 59 | 1.7 | 5.2 | 0.00 | 0.00 | 0.00 | 83 | 1011.3 |
| 20260505075014 | 50 | 345 | 1.7 | 5.2 | 0.00 | 0.00 | 0.00 | 84 | 1011.2 |
| 20260505074014 | 50 | 0 | 0.9 | 3.5 | 0.00 | 0.00 | 0.00 | 84 | 1011.3 |
| 20260505073514 | 49 | 17 | 1.7 | 3.5 | 0.00 | 0.00 | 0.00 | 84 | 1011.2 |
| 20260505073013 | 49 | 34 | 1.7 | 3.5 | 0.00 | 0.00 | 0.00 | 84 | 1011.3 |
| 20260505072512 | 49 | 38 | 1.7 | 3.5 | 0.00 | 0.00 | 0.00 | 84 | 1011.3 |
| 20260505072012 | 49 | 0 | 1.7 | 2.6 | 0.00 | 0.00 | 0.00 | 84 | 1011.3 |
| 20260505071511 | 49 | 34 | 1.7 | 5.2 | 0.00 | 0.00 | 0.00 | 85 | 1011.4 |
| 20260505071010 | 49 | 27 | 1.7 | 5.2 | 0.00 | 0.00 | 0.00 | 85 | 1011.3 |
| 20260505070510 | 49 | 42 | 1.7 | 4.3 | 0.00 | 0.00 | 0.00 | 85 | 1011.2 |
| 20260505070012 | 49 | 16 | 1.7 | 2.6 | 0.00 | 0.00 | 0.00 | 85 | 1011.5 |
| 20260505065510 | 49 | 23 | 0.9 | 3.5 | 0.00 | 0.00 | 0.00 | 85 | 1011.4 |
| 20260505065008 | 48 | 20 | 0.0 | 3.5 | 0.00 | 0.00 | 0.00 | 86 | 1011.5 |
| 20260505064506 | 48 | 0 | 0.9 | 3.5 | 0.00 | 0.00 | 0.00 | 86 | 1011.5 |
| 20260505064007 | 48 | 11 | 0.9 | 3.5 | 0.00 | 0.00 | 0.00 | 86 | 1011.5 |
| 20260505063506 | 48 | 25 | 0.9 | 1.7 | 0.00 | 0.00 | 0.00 | 86 | 1011.4 |
| 20260505063005 | 48 | 0 | 0.9 | 1.7 | 0.00 | 0.00 | 0.00 | 87 | 1011.5 |
| 20260505062504 | 48 | 14 | 0.0 | 1.7 | 0.00 | 0.00 | 0.00 | 87 | 1011.6 |
| 20260505062004 | 47 | 30 | 0.9 | 3.5 | 0.00 | 0.00 | 0.00 | 87 | 1011.6 |
| 20260505061504 | 47 | 0 | 0.9 | 3.5 | 0.00 | 0.00 | 0.00 | 87 | 1011.5 |
| 20260505061005 | 47 | 27 | 0.0 | 2.6 | 0.00 | 0.00 | 0.00 | 87 | 1011.6 |
| 20260505060503 | 47 | 0 | 0.9 | 3.5 | 0.00 | 0.00 | 0.00 | 87 | 1011.6 |
| 20260505060003 | 47 | 30 | 0.9 | 3.5 | 0.00 | 0.00 | 0.00 | 87 | 1011.5 |
| 20260505055502 | 47 | 17 | 0.9 | 2.6 | 0.00 | 0.00 | 0.00 | 87 | 1011.6 |
| 20260505055003 | 47 | 4 | 0.9 | 2.6 | 0.00 | 0.00 | 0.00 | 87 | 1011.6 |
| 20260505054503 | 47 | 0 | 0.9 | 2.6 | 0.00 | 0.00 | 0.00 | 87 | 1011.7 |
| 20260505054004 | 47 | 14 | 0.9 | 2.6 | 0.00 | 0.00 | 0.00 | 87 | 1011.5 |
| 20260505053502 | 46 | 13 | 0.9 | 2.6 | 0.00 | 0.00 | 0.00 | 88 | 1011.5 |
| 20260505053004 | 47 | 20 | 0.9 | 2.6 | 0.00 | 0.00 | 0.00 | 87 | 1011.5 |
| 20260505052503 | 47 | 4 | 0.9 | 2.6 | 0.00 | 0.00 | 0.00 | 88 | 1011.6 |
| 20260505052002 | 46 | 0 | 0.0 | 1.7 | 0.00 | 0.00 | 0.00 | 88 | 1011.5 |
| 20260505051504 | 46 | 37 | 0.9 | 1.7 | 0.00 | 0.00 | 0.00 | 88 | 1011.5 |
| 20260505051003 | 46 | 0 | 0.9 | 1.7 | 0.00 | 0.00 | 0.00 | 88 | 1011.5 |
| 20260505050504 | 46 | 35 | 0.9 | 1.7 | 0.00 | 0.00 | 0.00 | 88 | 1011.5 |
| 20260505041501 | 46 | 41 | 0.9 | 3.5 | 0.00 | 0.00 | 0.00 | 88 | 1011.4 |
| 20260505041001 | 46 | 20 | 0.9 | 3.5 | 0.00 | 0.00 | 0.00 | 88 | 1011.3 |
| 20260505040502 | 46 | 350 | 0.9 | 2.6 | 0.00 | 0.00 | 0.00 | 88 | 1011.4 |
| 20260505040001 | 46 | 13 | 0.9 | 2.6 | 0.00 | 0.00 | 0.00 | 88 | 1011.4 |
| 20260505035501 | 46 | 38 | 0.9 | 2.6 | 0.00 | 0.00 | 0.00 | 88 | 1011.4 |
| 20260505035002 | 46 | 34 | 0.9 | 2.6 | 0.00 | 0.00 | 0.00 | 88 | 1011.4 |
| 20260505034501 | 46 | 24 | 0.9 | 2.6 | 0.00 | 0.00 | 0.00 | 88 | 1011.4 |
| 20260505034001 | 46 | 27 | 0.9 | 3.5 | 0.00 | 0.00 | 0.00 | 88 | 1011.4 |
| 20260505033501 | 47 | 6 | 1.7 | 3.5 | 0.00 | 0.00 | 0.00 | 88 | 1011.5 |
| 20260505033001 | 47 | 31 | 0.0 | 1.7 | 0.00 | 0.00 | 0.00 | 88 | 1011.4 |
| 20260505032503 | 46 | 20 | 0.9 | 1.7 | 0.00 | 0.00 | 0.00 | 88 | 1011.5 |
| 20260505031959 | 46 | 20 | 0.9 | 1.7 | 0.00 | 0.00 | 0.00 | 88 | 1011.5 |
| 20260505031459 | 46 | 25 | 0.9 | 4.3 | 0.00 | 0.00 | 0.00 | 88 | 1011.6 |
| 20260505031000 | 46 | 6 | 1.7 | 4.3 | 0.00 | 0.00 | 0.00 | 88 | 1011.6 |
| 20260505030457 | 47 | 25 | 0.9 | 3.5 | 0.00 | 0.00 | 0.00 | 88 | 1011.6 |
| 20260505025957 | 47 | 13 | 0.9 | 3.5 | 0.00 | 0.00 | 0.00 | 88 | 1011.6 |
| 20260505025459 | 47 | 41 | 1.7 | 3.5 | 0.00 | 0.00 | 0.00 | 88 | 1011.6 |
| 20260505024959 | 47 | 0 | 0.9 | 1.7 | 0.00 | 0.00 | 0.00 | 88 | 1011.7 |
| 20260505024455 | 47 | 16 | 0.0 | 3.5 | 0.00 | 0.00 | 0.00 | 88 | 1011.7 |
| 20260505023956 | 47 | 23 | 0.9 | 3.5 | 0.00 | 0.00 | 0.00 | 88 | 1011.8 |
| 20260505023450 | 47 | 354 | 0.9 | 1.7 | 0.00 | 0.00 | 0.00 | 88 | 1011.7 |
| 20260505022948 | 46 | 39 | 0.9 | 1.7 | 0.00 | 0.00 | 0.00 | 88 | 1011.8 |
| 20260505022448 | 46 | 0 | 0.9 | 1.7 | 0.00 | 0.00 | 0.00 | 88 | 1011.7 |
| 20260505021948 | 46 | 0 | 0.9 | 2.6 | 0.00 | 0.00 | 0.00 | 88 | 1011.8 |
| 20260505021447 | 46 | 351 | 0.0 | 2.6 | 0.00 | 0.00 | 0.00 | 88 | 1011.8 |
| 20260505020946 | 47 | 20 | 0.9 | 2.6 | 0.00 | 0.00 | 0.00 | 88 | 1011.8 |
| 20260505020446 | 47 | 1 | 0.9 | 5.2 | 0.00 | 0.00 | 0.00 | 88 | 1012.0 |
| 20260505015946 | 46 | 0 | 0.9 | 5.2 | 0.00 | 0.00 | 0.00 | 88 | 1011.9 |
| 20260505015445 | 46 | 31 | 1.7 | 5.2 | 0.00 | 0.00 | 0.00 | 88 | 1011.9 |
| 20260505014944 | 47 | 24 | 1.7 | 5.2 | 0.00 | 0.00 | 0.00 | 88 | 1011.8 |
| 20260505014446 | 46 | 6 | 1.7 | 5.2 | 0.00 | 0.00 | 0.00 | 88 | 1011.8 |
| 20260505013943 | 46 | 0 | 1.7 | 5.2 | 0.00 | 0.00 | 0.00 | 88 | 1011.9 |
| 20260505013442 | 47 | 21 | 1.7 | 3.5 | 0.00 | 0.00 | 0.00 | 88 | 1012.0 |
| 20260505012943 | 47 | 0 | 0.9 | 5.2 | 0.00 | 0.00 | 0.00 | 88 | 1012.0 |
| 20260505012440 | 47 | 0 | 1.7 | 6.1 | 0.00 | 0.00 | 0.00 | 88 | 1012.0 |
| 20260505011941 | 47 | 6 | 1.7 | 6.1 | 0.00 | 0.00 | 0.00 | 88 | 1012.0 |
| 20260505011439 | 47 | 0 | 2.6 | 5.2 | 0.00 | 0.00 | 0.00 | 88 | 1012.1 |
| 20260505010939 | 47 | 338 | 1.7 | 3.5 | 0.00 | 0.00 | 0.00 | 88 | 1012.0 |
| 20260505010437 | 47 | 0 | 0.9 | 5.2 | 0.00 | 0.00 | 0.00 | 88 | 1012.0 |
| 20260505005939 | 47 | 0 | 2.6 | 5.2 | 0.00 | 0.00 | 0.00 | 88 | 1012.0 |
| 20260505005438 | 47 | 341 | 0.9 | 3.5 | 0.00 | 0.00 | 0.00 | 88 | 1012.0 |
| 20260505004936 | 47 | 20 | 1.7 | 3.5 | 0.00 | 0.00 | 0.00 | 88 | 1012.0 |
| 20260505004437 | 47 | 56 | 1.7 | 5.2 | 0.00 | 0.00 | 0.00 | 88 | 1012.0 |
| 20260505003934 | 47 | 25 | 1.7 | 5.2 | 0.00 | 0.00 | 0.00 | 88 | 1012.0 |
| 20260505003435 | 47 | 358 | 1.7 | 5.2 | 0.00 | 0.00 | 0.00 | 88 | 1012.0 |
| 20260505002936 | 46 | 0 | 1.7 | 5.2 | 0.00 | 0.00 | 0.00 | 88 | 1012.1 |